Location: New Plymouth
(39.0670°S, 174.0830°E)
Time: 05:29:58
(UTC+12:00)

ISS - Pass Details

Date: 20 June 2019
Orbit: 409 x 418 km, 51.6° (Epoch: 21 July)

Event Time Altitude Azimuth Distance (km) Brightness Sun altitude
Rises 19:01:06 0° 344° (NNW) 2,363 0.5 -21.2°
Reaches altitude 10° 19:03:36 10° 3° (N) 1,509 -0.8 -21.7°
Enters shadow 19:04:02 12° 9° (N) 1,390 -1.1 -21.8°
